This is the latest recevied weather packets stored in our database for station/object LX0WX-13. If no packets are shown the sender has not sent any weather packets the latest 1 day(s).
| Time | Temp. | Humidity | Pressure | Rain* | Wind** | Luminosity | Snow |
|---|---|---|---|---|---|---|---|
| 1778083549 | 9.44° C | 82% | 1003.5 hPa | 0 mm | - | - | - |
| 1778083249 | 9.44° C | 81% | 1003.7 hPa | 0 mm | - | - | - |
| 1778082949 | 9.44° C | 82% | 1003.6 hPa | 0 mm | - | - | - |
| 1778082649 | 9.44° C | 82% | 1003.5 hPa | 0 mm | - | - | - |
| 1778082049 | 9.44° C | 83% | 1003.3 hPa | 0 mm | - | - | - |
| 1778081449 | 9.44° C | 84% | 1003.4 hPa | 0 mm | - | - | - |
| 1778081149 | 9.44° C | 85% | 1003.4 hPa | 0 mm | - | - | - |
| 1778080549 | 8.33° C | 85% | 1003.3 hPa | 0 mm | - | - | - |
| 1778080249 | 8.33° C | 85% | 1003.4 hPa | 0 mm | - | - | - |
| 1778078150 | 9.44° C | 84% | 1003.3 hPa | 0 mm | - | - | - |
| 1778077549 | 9.44° C | 86% | 1003.3 hPa | 0 mm | - | - | - |
| 1778070650 | 8.89° C | 89% | 1002.6 hPa | 0 mm | - | - | - |
| 1778063450 | 9.44° C | 88% | 1002 hPa | 0 mm | - | - | - |
| 1778063150 | 9.44° C | 87% | 1002 hPa | 0 mm | - | - | - |
| 1778062851 | 9.44° C | 87% | 1002.1 hPa | 0 mm | - | - | - |
| 1778062550 | 9.44° C | 87% | 1002 hPa | 0 mm | - | - | - |
| 1778062250 | 9.44° C | 87% | 1002.1 hPa | 0 mm | - | - | - |
| 1778061950 | 9.44° C | 87% | 1002.2 hPa | 0 mm | - | - | - |
| 1778061650 | 9.44° C | 87% | 1002.1 hPa | 0 mm | - | - | - |
| 1778061350 | 9.44° C | 87% | 1002.1 hPa | 0 mm | - | - | - |
| 1778061050 | 9.44° C | 87% | 1002 hPa | 0 mm | - | - | - |
| 1778060750 | 10° C | 87% | 1001.8 hPa | 0 mm | - | - | - |
| 1778060450 | 10° C | 87% | 1001.7 hPa | 0 mm | - | - | - |
| 1778060150 | 10° C | 88% | 1001.8 hPa | 0 mm | - | - | - |
| 1778059550 | 10.56° C | 90% | 1001.7 hPa | 0 mm | - | - | - |
* Rain latest hour (hover to see other rain measurements)
** Current wind speed in m/s (hover to see current wind gust speed)